Bloomington, IN

10:25 AM EST on February 11, 2016 (GMT -0500)
Monroe County

Weather History for KBMG - October, 2011

Change the Weather History Date:

Friday, October 21, 2011

  Actual Average Record
Temperature  
Mean Temperature 46 °F 53 °F  
Max Temperature 57 °F 66 °F - ()
Min Temperature 34 °F 41 °F - ()
Degree Days  
Heating Degree Days 19 12  
Month to date heating degree days 181 198  
Since 1 July heating degree days 284 283  
Cooling Degree Days 0 0  
Month to date cooling degree days 0 11  
Year to date cooling degree days 1170 924  
Moisture  
Dew Point 36 °F    
Average Humidity 68    
Maximum Humidity 92    
Minimum Humidity 43    
Precipitation  
Precipitation 0.00 in 0.12 in - ()
Month to date precipitation 2.60 2.44  
Year to date precipitation 46.48 38.98  
Sea Level Pressure  
Sea Level Pressure 30.07 in    
Wind  
Wind Speed 4 mph (West)    
Max Wind Speed 12 mph    
Max Gust Speed 15 mph    
Visibility 10 miles    
Events      
T = Trace of Precipitation, MM = Missing Value Source: NWS Daily Summary

Daily Weather History Graph

Daily Weather History Graph

Search for Another Location

Airport or City:

Trip Planner

Search our weather history database for the weather conditions in past years. The results will help you decide how hot, cold, wet, or windy it might be!

Date:

Astronomy

Oct. 21, 2011 Rise Set
Actual Time 8:02 AM EDT 6:59 PM EDT
Civil Twilight 7:34 AM EDT 7:26 PM EDT
Nautical Twilight 7:03 AM EDT 7:57 PM EDT
Astronomical Twilight 6:32 AM EDT 8:28 PM EDT
Moon 1:54 AM EDT (10/21) 3:41 PM EDT (10/21)
Length of Visible Light 11h 51m
Length of Day
10h 57m
Waning Crescent, 34% of the Moon is Illuminated
Oct 21
Waning Crescent
Oct 26
New
Nov 2
First Quarter
Nov 10
Full
Nov 18
Last Quarter

Hourly Weather History & Observations

Time (EDT) Temp. Windchill Dew Point Humidity Pressure Visibility Wind Dir Wind Speed Gust Speed Precip Events Conditions
12:53 AM 43.0 °F 38.8 °F 36.0 °F 76% 29.96 in 10.0 mi West 6.9 mph - N/A   Overcast
1:53 AM 43.0 °F 39.5 °F 36.0 °F 76% 29.97 in 10.0 mi West 5.8 mph - N/A   Overcast
2:53 AM 43.0 °F 38.8 °F 36.0 °F 76% 29.98 in 10.0 mi West 6.9 mph - N/A   Overcast
3:53 AM 43.0 °F 40.3 °F 35.1 °F 74% 29.99 in 10.0 mi WSW 4.6 mph - N/A   Overcast
4:53 AM 43.0 °F 39.5 °F 35.1 °F 74% 29.99 in 10.0 mi WSW 5.8 mph - N/A   Overcast
5:53 AM 42.1 °F 37.1 °F 35.1 °F 76% 30.01 in 10.0 mi WSW 8.1 mph - N/A   Overcast
6:53 AM 39.0 °F 34.8 °F 35.1 °F 86% 30.02 in 10.0 mi SW 5.8 mph - N/A   Clear
8:53 AM 39.9 °F - 36.0 °F 86% 30.06 in 10.0 mi Calm Calm - N/A   Clear
9:53 AM 43.0 °F 38.8 °F 37.0 °F 80% 30.09 in 10.0 mi West 6.9 mph - N/A   Clear
11:53 AM 50.0 °F - 37.9 °F 63% 30.10 in 10.0 mi West 5.8 mph - N/A   Clear
12:53 PM 52.0 °F - 37.9 °F 59% 30.10 in 10.0 mi West 5.8 mph - N/A   Clear
1:53 PM 54.0 °F - 37.0 °F 53% 30.09 in 10.0 mi West 12.7 mph - N/A   Clear
2:53 PM 55.9 °F - 36.0 °F 47% 30.08 in 10.0 mi Variable 3.5 mph - N/A   Clear
3:53 PM 57.0 °F - 36.0 °F 45% 30.08 in 10.0 mi NW 8.1 mph - N/A   Clear
4:53 PM 55.9 °F - 36.0 °F 47% 30.09 in 10.0 mi West 8.1 mph - N/A   Clear
5:53 PM 55.9 °F - 34.0 °F 44% 30.09 in 10.0 mi WNW 6.9 mph - N/A   Clear
6:53 PM 51.1 °F - 35.1 °F 54% 30.11 in 10.0 mi Calm Calm - N/A   Clear
7:53 PM 44.1 °F - 37.0 °F 76% 30.12 in 10.0 mi Calm Calm - N/A   Clear
8:53 PM 42.1 °F - 36.0 °F 79% 30.13 in 10.0 mi Calm Calm - N/A   Clear
9:53 PM 37.0 °F - 35.1 °F 93% 30.13 in 10.0 mi Calm Calm - N/A   Clear
10:53 PM 37.9 °F - 35.1 °F 89% 30.14 in 10.0 mi Calm Calm - N/A   Clear
11:53 PM 35.1 °F - 33.1 °F 92% 30.14 in 10.0 mi Calm Calm - N/A   Clear